Погода в Ксамиле

Албания     39°46′08″N   20°00′00″E
темп.,
°C
ветер,
м/с
пор.,
м/с
влажн.,
%
обл.,
%
осадки,
мм/ч
давл.,
гПа
погр.,
м
23 апреля, пт
пт2323:00+13юв2275100 0.1 1022122
02:00+13юв2384100 1.3 1021196
05:00+13св4580100 1.3 1020203
08:00+14св2372100 1.3 1020132
11:00+16св3462100 0.0 1020310
14:00+14ссв5578100 1.9 1021379
17:00+13ссв5683100 3.9 1020264
20:00+13св4583100 6.0 1019190
24 апреля, сб
сб2423:00+13св2377100 0.1 1018131
02:00+13в3381100 0.8 1017119
05:00+13св4580100 0.4 1015181
08:00+14св3475100 0.4 1015144
11:00+14св5675100 0.2 1015231
14:00+15всв3574100 0.3 1014277
17:00+15ссв457098 0.2 1014321
20:00+14всв3372100 0.2 1015135
25 апреля, вс
вс2523:00+12всв34718 0.0 101598
02:00+12всв236923 0.0 1015100
05:00+11св22713 0.0 1015104
08:00+14всв22650 0.0 1015195
11:00+16зюз11570 0.0 1016478
14:00+16сз43650 0.0 1016454
17:00+16сз55705 0.0 1015347
20:00+15зсз22811 0.0 101660
26 апреля, пн
пн2623:00+14сз11810 0.0 101637
02:00+14ссв0180100 0.0 101734
05:00+14юв117913 0.0 101679
08:00+16ююв22725 0.0 1017239
11:00+17ю33715 0.0 1018417
14:00+18ю55701 0.0 1018484
17:00+17ююв557390 0.0 1017443
20:00+15ююв4585100 0.0 1016214
27 апреля, вт
вт2723:00+15юв4583100 0.0 1016215
02:00+14ююв238095 0.0 1016172
05:00+15юв6770100 0.0 1012262
08:00+16ююв3474100 0.0 1016330
11:00+17юв4572100 0.0 1015384
14:00+17ююв9126894 0.0 1010433
17:00+18ю71070100 0.0 1010369
20:00+17ююв5877100 0.0 1010207